Regional Weather Roundup
Issued by NWS

Home | Current Version | Previous Version | Graphics & Text | Print | Product List | Glossary On
Versions: 1 2 3 4 5 6 7 8 9 10 11 12 13 14 15 16 17 18 19 20 21 22 23 24 25 26 27 28 29 30 31 32 33 34 35 36 37 38 39 40 41 42 43 44 45 46 47 48 49 50
000
ASUS43 KOAX 120002
RWRNE

WEATHER ROUNDUP FOR NEBRASKA
NATIONAL WEATHER SERVICE OMAHA NE
700 PM CDT FRI JUL 11 2014

NOTES: SATELLITE DATA IS BEING USED TO AUGMENT CLOUD COVER ABOVE
       12000 FEET.
       "FAIR" INDICATES FEW OR NO CLOUDS BELOW 12,000 FEET WITH NO
       SIGNIFICANT WEATHER AND/OR OBSTRUCTIONS TO VISIBILITY.

  * THESE STATIONS DO NOT REPORT WEATHER SUCH AS RAIN...SNOW OR FOG.

NEZ001>004-019>022-054>056-120100-
NEBRASKA PANHANDLE

CITY           SKY/WX    TMP DP  RH WIND       PRES   REMARKS
SCOTTSBLUFF    CLOUDY    74  65  73 E9        30.08R
6HR MIN TEMP:  71; 6HR MAX TEMP:  90; 6HR PCP: TRACE;

ALLIANCE       LGT RAIN  75  68  78 S6        30.07R
6HR MIN TEMP:  75; 6HR MAX TEMP:  87; 6HR PCP: TRACE;

CHADRON        LGT RAIN  71  66  84 NE16      30.06R
6HR MIN TEMP:  71; 6HR MAX TEMP:  91; 6HR PCP:  0.03;

KIMBALL        CLOUDY    67  65  91 NE8       30.13S
SIDNEY         PTSUNNY   81  61  50 NE7       30.10R
6HR MIN TEMP:  81; 6HR MAX TEMP:  91;

$$

NEZ057>060-069>072-079>082-120100-
SOUTHWEST NEBRASKA

CITY           SKY/WX    TMP DP  RH WIND       PRES   REMARKS
NORTH PLATTE   SUNNY     87  69  54 NE12      29.95S HX  91
6HR MIN TEMP:  79; 6HR MAX TEMP:  89;

IMPERIAL       SUNNY     88  68  51 NE17G25   29.94S HX  91
6HR MIN TEMP:  85; 6HR MAX TEMP:  92;

LEXINGTON      SUNNY     87  75  66 E12       29.92F HX  96
MCCOOK         SUNNY     94  56  27 S13       29.88F HX  92
6HR MIN TEMP:  88; 6HR MAX TEMP:  98;

OGALLALA       SUNNY     83  64  51 NE12      29.99R
$$

NEZ005>010-023>029-035>040-094-120100-
NORTH CENTRAL NEBRASKA

CITY           SKY/WX    TMP DP  RH WIND       PRES   REMARKS
VALENTINE      PTSUNNY   84  67  56 E9        30.00R
6HR MIN TEMP:  84; 6HR MAX TEMP:  87;

AINSWORTH      LGT RAIN  79  70  74 E3        30.01R
BROKEN BOW     SUNNY     85  72  65 E9        29.96F HX  91
6HR MIN TEMP:  79; 6HR MAX TEMP:  91;

O`NEILL        PTSUNNY   82  71  69 E7        29.98S
ORD            PTSUNNY   82  73  74 E9        29.95F
6HR MIN TEMP:  78; 6HR MAX TEMP:  82;

THEDFORD       MOSUNNY   86  65  49 E8        30.00S
$$

NEZ041-046>049-061>064-073>077-083>087-120100-
SOUTH CENTRAL NEBRASKA

CITY           SKY/WX    TMP DP  RH WIND       PRES   REMARKS
GRAND ISLAND   SUNNY     87  76  69 E10       29.94F HX  97
6HR MIN TEMP:  80; 6HR MAX TEMP:  87;

AURORA         SUNNY     87  76  69 E7        29.94F HX  98
HASTINGS       SUNNY     89  70  53 E8        29.92F HX  94
6HR MIN TEMP:  81; 6HR MAX TEMP:  91;

HEBRON         SUNNY     94  65  38 S10       29.92F HX  96
HOLDREGE       SUNNY     92  60  33 S10       29.91S HX  92
KEARNEY *      SUNNY     88  75  66 E13       29.93F HX  97
YORK           MOSUNNY   88  73  62 E8        29.94F HX  96
$$

NEZ011>018-030>034-042>045-120100-
NORTHEAST NEBRASKA

CITY           SKY/WX    TMP DP  RH WIND       PRES   REMARKS
NORFOLK        CLOUDY    78  72  81 E6        29.98S
6HR MIN TEMP:  75; 6HR MAX TEMP:  79; 6HR PCP: TRACE;

ALBION         CLOUDY    79  72  78 E8        29.98F
BLAIR          PTSUNNY   79  71  74 NE6       29.99F
TEKAMAH        PTSUNNY   78  71  79 E3        29.98F
6HR MIN TEMP:  76; 6HR MAX TEMP:  81;

WAYNE          CLOUDY    77  73  88 SE8       29.99S
$$

NEZ050>053-065>068-078-088>093-120100-
SOUTHEAST NEBRASKA

CITY           SKY/WX    TMP DP  RH WIND       PRES   REMARKS
LINCOLN        MOSUNNY   93  70  46 CALM      29.95F HX  99
6HR MIN TEMP:  82; 6HR MAX TEMP:  93;

OMAHA EPPLEY   PTSUNNY   84  73  69 NE6       29.98R HX  90
6HR MIN TEMP:  76; 6HR MAX TEMP:  84;

BEATRICE       MOSUNNY   89  73  59 S8        29.93F HX  97
FALLS CITY     PTSUNNY   91  74  57 S12       29.95S HX 100
6HR MIN TEMP:  84; 6HR MAX TEMP:  92;

NEBRASKA CITY  MOSUNNY   85  75  71 CALM      29.96S HX  94
PLATTSMOUTH    MOSUNNY   85  75  71 NE3       29.98R HX  94
$$

NEZ044-045-051>053-067-120100-
OMAHA AREA

CITY           SKY/WX    TMP DP  RH WIND       PRES   REMARKS
OMAHA EPPLEY   PTSUNNY   84  73  69 NE6       29.98R HX  90
6HR MIN TEMP:  76; 6HR MAX TEMP:  84;

BLAIR          PTSUNNY   79  71  74 NE6       29.99F
MILLARD        MOSUNNY   86  74  68 CALM      29.96S HX  94
OFFUTT AFB     PTSUNNY   85  79  80 NE6       29.97R HX  98
PLATTSMOUTH    MOSUNNY   85  75  71 NE3       29.98R HX  94
WAHOO          FAIR      83  73  72 NE7       29.96F
$$


USA.gov is the U.S. government's official web portal to all federal, state and local government web resources and services.